Tracking 18840 objects as of 18-November-2017
HD Live streaming from Space Station
objects crossing your sky now

CLUSTER II-FM7

Track CLUSTER II-FM7 now!
CLUSTER II-FM7 is classified as:


NORAD ID: 26411
Int'l Code: 2000-041B
Perigee: 29,970.3 km
Apogee: 102,799.8 km
Inclination: 130.0 °
Period: 3,255.1 minutes
Semi major axis: 72756 km
RCS: 1.5887 m2 (large)
Launch date: July 16, 2000
Source: European Space Agency (ESA)
Launch site: TYURATAM MISSILE AND SPACE COMPLEX (TTMTR)
aabbcc
Your satellite tracking list
Your tracking list is empty




NASA's NSSDC Master Catalog

Two Line Element Set (TLE):
1 26411U 00041B   17323.47832901 +.00000433 +00000-0 +00000-0 0  9999
2 26411 129.9678 335.6379 5005046 163.7961 000.6816 00.44238378006474
Source of the keplerian elements: AFSPC